TimeEST,TemperatureF,Dew PointF,Humidity,Sea Level PressureIn,VisibilityMPH,Wind Direction,Wind SpeedMPH,Gust SpeedMPH,PrecipitationIn,Events,Conditions,WindDirDegrees,DateUTC
12:54 AM,21.0,9.0,60,29.86,10.0,Calm,Calm,-,N/A,,Overcast,0,2014-01-27 05:54:00
1:54 AM,21.9,9.0,58,29.84,10.0,Calm,Calm,-,N/A,,Overcast,0,2014-01-27 06:54:00
2:54 AM,21.9,10.9,63,29.81,10.0,Calm,Calm,-,N/A,,Overcast,0,2014-01-27 07:54:00
3:54 AM,23.0,12.0,63,29.75,10.0,Calm,Calm,-,N/A,,Overcast,0,2014-01-27 08:54:00
4:54 AM,19.9,12.0,71,29.72,10.0,Calm,Calm,-,N/A,,Clear,0,2014-01-27 09:54:00
5:54 AM,19.9,12.9,74,29.69,10.0,Calm,Calm,-,N/A,,Mostly Cloudy,0,2014-01-27 10:54:00
6:54 AM,21.0,14.0,74,29.67,10.0,Calm,Calm,-,N/A,,Partly Cloudy,0,2014-01-27 11:54:00
7:54 AM,24.1,15.1,69,29.63,10.0,SSW,3.5,-,N/A,,Overcast,210,2014-01-27 12:54:00
8:54 AM,28.9,19.9,69,29.58,10.0,SSW,5.8,-,N/A,,Overcast,200,2014-01-27 13:54:00
9:54 AM,34.0,25.0,70,29.59,10.0,WSW,3.5,-,0.00,Rain,Light Rain,250,2014-01-27 14:54:00
10:54 AM,42.1,33.1,70,29.56,10.0,South,12.7,21.9,0.01,Rain,Light Rain,190,2014-01-27 15:54:00
11:54 AM,43.0,34.0,71,29.52,10.0,SSW,16.1,21.9,0.01,Rain,Light Rain,200,2014-01-27 16:54:00
12:54 PM,43.0,33.1,68,29.53,10.0,SW,17.3,24.2,0.00,,Mostly Cloudy,230,2014-01-27 17:54:00
1:54 PM,39.0,26.1,60,29.58,10.0,WNW,18.4,28.8,N/A,,Overcast,290,2014-01-27 18:54:00
2:54 PM,37.0,21.9,54,29.62,10.0,West,15.0,25.3,N/A,,Mostly Cloudy,260,2014-01-27 19:54:00
3:54 PM,33.1,15.1,48,29.69,10.0,West,18.4,34.5,N/A,,Overcast,270,2014-01-27 20:54:00
4:54 PM,30.0,3.9,33,29.74,10.0,WNW,17.3,29.9,N/A,,Overcast,290,2014-01-27 21:54:00
5:54 PM,27.0,1.0,33,29.80,10.0,West,16.1,21.9,N/A,,Clear,270,2014-01-27 22:54:00
6:54 PM,27.0,1.0,33,29.84,10.0,West,12.7,-,N/A,,Clear,270,2014-01-27 23:54:00
7:54 PM,26.1,1.0,34,29.88,10.0,WNW,9.2,18.4,N/A,,Clear,290,2014-01-28 00:54:00
8:54 PM,24.1,3.0,40,29.92,10.0,NW,15.0,21.9,N/A,,Clear,310,2014-01-28 01:54:00
9:54 PM,21.9,1.0,40,29.94,10.0,WNW,9.2,-,N/A,,Clear,290,2014-01-28 02:54:00
10:54 PM,21.0,1.0,42,29.96,10.0,West,10.4,-,N/A,,Clear,280,2014-01-28 03:54:00
11:54 PM,19.9,5.0,52,29.99,10.0,West,5.8,-,N/A,,Clear,280,2014-01-28 04:54:00